Regional Weather Roundup
Issued by NWS Green Bay, WI

Home | Current Version | Previous Version | Graphics & Text | Print | Product List | Glossary Off
Versions: 1 2 3 4 5 6 7 8 9 10 11 12 13 14 15 16 17 18 19 20 21 22 23 24 25 26 27 28 29 30 31 32 33 34 35 36 37 38 39 40 41 42 43 44 45 46 47 48 49 50

091
ASUS43 KGRB 241211
RWRGRB

NORTH-CENTRAL AND NORTHEAST WISCONSIN REGIONAL WEATHER ROUNDUP
NATIONAL WEATHER SERVICE GREEN BAY WI
700 AM CDT SUN SEP 24 2017

WIZ005-009-010>012-018-019-241300-
NORTH CENTRAL WISCONSIN

CITY           SKY/WX    TMP DP  RH WIND       PRES   REMARKS
IRONWOOD       CLEAR     72  63  73 S12G20    30.01S
MANITOWISH WTR NOT AVBL
ARBOR VITAE    CLEAR     69  64  82 S5        30.06S
EAGLE RIVER    CLEAR     62  62  99 CALM      30.07S
LAND O LAKES   FOG       60  60 100 CALM      30.09S VSB 3/4
RHINELANDER    CLEAR     61  61 100 CALM      30.08S FOG
PHILLIPS       CLEAR     67  64  87 S3        30.04S
ANTIGO         CLEAR     66  64  94 S5        30.09S
TOMAHAWK       CLEAR     60  59  96 CALM      30.07S FOG
MERRILL        CLEAR     58  58 100 CALM      30.07S FOG
$$

WIZ013-073-241300-
NORTHEAST WISCONSIN

CITY           SKY/WX    TMP DP  RH WIND       PRES   REMARKS
IRON MOUNTAIN  CLEAR     66  62  87 CALM      30.07R FOG
MARINETTE      FOG       64  63  96 CALM      30.08R VSB 1/4
OCONTO         MOCLDY    61  61  99 CALM      30.07R VSB 1
$$

WIZ017-030-035>037-045-241300-
CENTRAL WISCONSIN

CITY           SKY/WX    TMP DP  RH WIND       PRES   REMARKS
MEDFORD        CLEAR     62  60  91 S6        30.06R
WAUSAU         CLEAR     63  62  97 E5        30.05S
MOSINEE        CLEAR     64  63  94 SE5       30.07S
MARSHFIELD     CLEAR     65  60  84 S6        30.05S
WISC RAPIDS    CLEAR     68  64  87 S5        30.06F
STEVENS POINT  CLEAR     61  61 100 CALM      30.07S FOG
WAUPACA        CLEAR     64  64  98 CALM      30.08R FOG
SHAWANO        CLEAR     68  65  90 CALM      30.07R
CLINTONVILLE   FOG       63  61  94 CALM      30.07R VSB 3/4
WAUTOMA        CLEAR     61  60  97 CALM      30.07S
$$

WIZ038-039-048-051-241300-
FOX VALLEY

CITY           SKY/WX    TMP DP  RH WIND       PRES   REMARKS
NWS GREEN BAY  CLEAR     64  64 100 CALM      30.07R
APPLETON       CLEAR     68  61  77 CALM      30.06S
OSHKOSH        CLEAR     67  64  90 S6        30.07R
FOND DU LAC    CLEAR     65  62  90 CALM      30.08R
$$

WIZ022-050-052-241300-
EAST CENTRAL WISCONSIN

CITY           SKY/WX    TMP DP  RH WIND       PRES   REMARKS
EPHRAIM        FAIR      68  63  84 S5        30.08R
WASHINGTON ISL FAIR      66  64  91 S3        30.07S
STURGEON BAY   CLEAR     70  65  84 S6        30.09R
MANITOWOC      CLEAR     64  64 100 SE3       30.10R FOG
SHEBOYGAN      CLEAR     65  65 100 S3        30.09R FOG
$$

LMZ563-521-522-541>543-241300-
LAKESHORE

STATION/POSITION TIME  TEMP    WIND        PRES    VSBY  WAVE
                       AIR SEA DIR/SP/G                  HT/PER
                 (UTC) (F)     (DEG/KT/KT) (MB)    (MI)  (FT/S)
SHEBOYGAN LKSHOR 1200   69     180/  6/  6 1018.4R
KEWAUNEE LKSHORE 1148   65     180/  6/  7 1017.8R
NORTHPORT PIER   1140   68     150/  4/  7 1018.3R
N MID LAKE BUOY  1150   69 66  180/  8/  8 1019.1R         1/ 3
S GREEN BAY BUOY 1200   70 68  170/  6/  6 1017.9R
SISTER BAY LKSHO 1204   70     130/ 10/ 10   N/A
MENOMINEE LKSHOR 1148   68        CALM     1017.8R
$$




USA.gov is the U.S. government's official web portal to all federal, state and local government web resources and services.